Terug naar catalogus

PSLV DEB

ActiefSSO
NORAD 35339·DEBRIS·🇮🇳 India

Gelanceerd Oct 22, 2001 vanaf Satish Dhawan Space Centre

Loading…

Volgende Passages (komende 24 uur)

TLE

VersSource: Space-Track

Epoch: Sep 14, 2026, 04:55 UTC

1 35339U 01049PX  26257.20512718  .00003412  00000-0  67230-3 0  9996
2 35339  98.3946  28.8600 0135528 218.6221 140.5224 14.57509850251532

Volg PSLV DEB in realtime met AllMySat

Download on the App Store